Zurück zum Katalog

QPS-SAR-8 AMATERU-IV

AktivWissenschaftSSO
NORAD 60542·PAYLOAD·🇯🇵 Japan

Gestartet Aug 16, 2024 von Vandenberg Space Force Base

Loading…

Nächste Überflüge (nächste 24 Stunden)

TLE

AktuellSource: Space-Track

Epoche: Sep 14, 2026, 04:20 UTC

1 60542U 24149CC  26257.18121033  .00004064  00000-0  29173-3 0  9997
2 60542  97.6598 335.6040 0003705 153.0457 207.0962 15.04868615113650

Verfolge QPS-SAR-8 AMATERU-IV in Echtzeit mit AllMySat

Download on the App Store